Location: Unspecified
(0.0000°N, 0.0000°E)
Time: 03:39:47
(UTC+02:00)

Ariane H10+ - Visible Passes

Search period start: 23 July 2014 00:00
Search period end: 02 August 2014 00:00
Orbit: 288 x 31913 km, 7.2° (Epoch: 20 July)

Date Brightness Start Highest point End Pass type
(mag) Time Alt. Az. Time Alt. Az. Time Alt. Az.
23 Jul 5.2 13:14:47 10° W 21:30:55 65° SSW 21:34:56 31° ESE visible
24 Jul 6.6 07:16:35 10° W 07:29:26 80° N 15:53:51 10° E visible
26 Jul 5.3 05:51:27 55° W 05:54:19 83° N 14:14:52 10° E visible
28 Jul 6.1 04:26:07 43° E 04:26:07 43° E 04:47:20 10° E visible
28 Jul 10.6 08:29:09 10° E 11:00:54 21° E 12:18:07 10° E visible
28 Jul 5.2 22:24:25 10° W 22:41:12 44° SW 22:41:12 44° SW visible
30 Jul 5.4 12:53:31 10° W 21:10:30 65° SSW 21:15:33 22° ESE visible
31 Jul 6.5 06:57:11 17° W 07:08:33 79° N 15:32:54 10° E visible
